Wind_Speed
5 5 5 5 5 4 4 4 3 2 2 1 1 1 2 3 3 3 4 5 5 6 8 9 10 10 9 9 9 10 10 10 10 10 10 10 11 10 10 10 11 11 12
6 6 5 5 4 4 3 3 3 2 1 1 2 2 3 3 4 4 5 5 6 6 7 8 9 9 9 9 9 9 9 10 10 10 10 10 11 11 11 11 11 10 11
5 6 5 5 4 4 4 3 3 2 1 1 2 2 3 3 3 4 5 5 5 6 7 8 8 9 9 9 9 9 9 10 9 10 10 11 11 12 12 12 11 11 11
5 5 5 5 4 4 3 3 3 2 2 2 2 2 3 3 4 4 5 5 5 6 7 8 8 8 8 7 7 8 8 10 10 10 10 11 11 12 11 11 11 11 12
5 5 5 5 4 4 4 3 3 3 2 2 2 2 3 3 4 4 4 5 5 6 7 7 8 8 8 7 7 7 7 8 9 9 10 11 12 13 12 12 12 12 12
5 5 5 5 5 4 4 4 3 3 2 2 2 2 3 3 3 4 4 4 5 5 6 7 7 7 7 6 6 6 7 7 7 8 9 10 10 11 11 12 13 13 14
4 5 5 5 5 5 4 4 3 3 3 2 2 2 2 3 3 4 4 4 5 5 6 6 6 7 7 6 6 6 6 6 7 7 8 9 8 9 10 11 12 14 14
4 4 5 5 4 4 4 4 4 3 4 3 3 2 2 2 2 3 4 5 5 5 6 5 6 6 6 6 6 6 6 6 6 6 8 8 8 8 9 10 12 13 14
3 4 4 4 4 4 4 4 4 3 3 3 2 2 2 2 2 2 3 4 5 5 5 5 5 5 6 5 5 5 6 7 6 7 7 8 8 9 10 10 10 11 13
3 3 4 4 4 4 3 3 3 3 2 2 2 2 1 1 1 1 2 3 4 4 4 4 5 5 6 6 5 5 5 6 7 8 9 9 9 9 9 10 11 11 11
3 3 4 4 4 4 3 2 2 2 2 1 1 1 1 1 1 0 1 3 3 3 4 4 4 5 5 6 6 6 6 7 8 9 10 10 10 10 10 10 10 11 11
3 3 4 4 4 4 4 3 2 2 2 1 2 1 1 1 1 1 1 2 3 3 4 5 5 5 5 5 6 7 7 8 9 9 10 10 10 11 11 11 12 12 12
3 3 4 4 4 5 4 4 4 3 3 3 3 3 2 2 1 2 2 3 3 4 5 5 6 7 7 7 7 8 9 9 10 10 11 11 11 11 12 12 13 13 13
4 4 4 4 5 5 5 5 5 4 4 4 3 3 3 2 2 2 3 4 4 5 6 6 7 7 8 8 9 9 10 11 11 12 12 12 12 13 13 13 14 15 16
6 5 5 5 6 7 6 6 6 5 5 4 4 4 4 4 4 4 4 5 6 6 6 7 8 8 9 10 10 11 12 13 14 14 15 14 14 15 16 16 16 17 17
7 7 7 7 7 7 8 7 7 6 6 5 5 6 6 5 6 6 6 6 6 7 7 9 9 10 11 12 12 13 13 14 16 17 16 16 17 17 18 18 19 19 20
8 8 8 8 8 8 8 8 7 7 7 7 7 7 7 7 7 7 7 8 8 8 9 10 11 12 13 14 14 15 15 16 17 17 17 18 18 20 20 20 21 21 22
10 9 9 9 9 9 9 9 9 8 8 8 8 8 8 8 8 8 9 9 10 10 11 12 13 14 15 15 16 17 17 17 17 18 19 20 21 21 22 22 23 24 25
11 11 10 10 10 9 9 9 9 9 9 10 10 10 10 10 10 10 11 11 12 12 13 14 14 15 16 16 17 18 18 19 20 21 21 22 23 24 24 25 26 27 28
12 12 12 12 12 11 11 11 10 10 11 11 12 12 12 12 12 13 13 14 14 15 15 16 17 17 18 19 20 20 20 21 22 23 24 25 26 26 27 28 29 30 31
13 13 13 13 13 13 13 12 12 12 12 13 13 14 14 14 14 15 16 16 17 18 18 19 19 20 20 21 22 22 23 24 24 25 26 27 28 29 30 31 32 32 33
14 14 14 14 14 14 13 13 14 14 14 15 15 16 16 16 17 18 18 19 20 20 21 22 22 22 23 24 25 25 26 27 27 28 29 30 31 32 33 34 35 37 38
15 15 15 15 15 15 15 15 15 15 16 16 17 18 18 19 20 20 21 21 22 23 24 24 25 25 26 27 28 28 29 30 31 31 32 33 34 36 36 38 39 41 42
16 16 16 16 16 16 16 16 17 17 18 18 19 20 20 21 22 23 23 24 24 25 26 27 27 28 28 29 30 31 32 33 34 35 36 37 38 39 40 41 43 45 46
17 17 16 17 17 18 18 19 19 20 20 21 22 22 23 24 25 26 26 27 27 28 28 29 30 31 32 33 34 35 35 36 37 38 39 40 41 42 43 45 46 47 48
17 17 17 18 19 20 20 21 22 22 23 24 25 26 27 28 28 29 29 30 30 30 31 32 33 34 35 36 37 38 39 40 40 41 42 43 44 45 45 46 47 48 49
Wind_Direction
4 0 1 1 4 10 14 14 8 14 28 49 98 138 165 175 178 180 171 173 175 183 186 189 193 193 192 195 199 201 204 206 206 211 214 217 216 215 215 218 224 229 225
8 10 11 8 7 11 11 10 8 18 54 79 111 132 149 162 173 180 174 169 171 176 177 181 185 186 189 194 198 200 204 207 209 212 216 219 218 219 220 221 225 228 226
5 7 9 12 14 15 16 22 31 47 77 96 116 134 146 159 168 174 172 171 171 175 182 183 185 188 190 195 198 202 206 207 208 212 217 221 224 223 222 224 229 231 232
7 11 13 15 20 24 27 36 46 64 91 111 125 132 142 157 164 163 166 171 176 181 180 181 187 192 194 194 194 200 209 210 212 217 222 224 227 226 227 230 234 234 237
14 14 18 22 30 33 35 44 52 66 82 103 126 139 144 153 159 164 169 173 175 178 180 184 188 193 192 193 198 200 205 206 211 222 227 228 232 232 233 236 239 241 242
19 21 24 29 35 38 41 46 55 68 79 92 113 130 141 154 167 168 169 170 175 179 183 188 189 192 191 194 198 201 204 209 214 226 233 231 230 234 236 241 244 245 246
28 28 27 31 39 43 45 48 57 68 74 81 101 119 127 140 159 172 176 178 179 181 181 182 185 187 194 201 200 204 210 216 223 231 240 237 238 240 244 251 250 249 251
27 27 26 31 38 43 46 47 52 64 71 77 88 102 108 123 156 175 181 184 184 186 185 187 191 196 202 212 211 212 221 227 234 239 243 244 244 249 253 257 254 251 254
15 23 25 29 31 32 38 40 41 53 63 68 72 71 76 95 107 155 178 187 191 195 193 196 200 208 212 222 227 229 230 236 241 245 248 249 248 252 256 256 252 251 252
348 359 6 11 12 14 18 21 26 33 40 40 39 39 46 66 84 115 171 184 192 198 198 204 213 222 224 233 241 247 246 248 251 254 257 259 258 258 257 255 255 255 252
320 334 345 352 354 357 353 351 358 1 1 7 9 19 22 18 5 309 193 201 203 208 213 219 224 229 232 241 248 253 255 258 257 260 262 260 261 259 259 261 262 261 260
300 313 322 331 335 335 334 334 331 327 325 327 324 332 344 341 322 277 224 218 220 226 231 236 240 242 246 254 258 261 264 266 267 268 266 264 267 267 271 274 269 266 265
291 299 306 314 324 323 317 312 309 299 290 296 298 304 309 314 299 279 261 250 246 247 249 249 251 255 262 267 268 269 270 271 273 269 267 268 270 274 276 277 276 274 270
278 284 294 304 312 316 312 307 297 295 290 291 290 293 296 289 278 281 272 262 261 266 265 261 261 264 265 267 269 272 275 275 277 276 271 270 272 274 275 274 276 278 277
268 277 283 295 302 304 301 295 291 289 285 281 280 285 284 282 277 276 275 271 270 271 274 274 273 273 271 270 273 276 278 279 277 277 276 271 271 273 275 276 277 277 277
268 272 280 291 294 295 294 289 287 283 277 275 274 273 276 280 280 278 276 279 280 278 278 281 280 280 280 277 276 278 280 281 281 280 281 278 275 276 277 278 278 277 276
268 272 278 283 288 292 289 287 283 279 273 271 275 276 276 278 281 280 281 281 283 285 286 284 284 283 284 282 280 280 283 284 284 284 284 282 280 278 277 279 280 279 277
269 272 277 280 283 287 286 282 279 277 275 276 280 280 281 283 284 283 285 287 286 289 291 290 286 284 284 284 284 284 285 286 287 287 286 284 283 281 280 280 280 280 280
270 271 272 277 281 281 280 278 278 275 275 278 278 278 277 278 281 282 283 285 288 289 291 292 292 292 291 290 290 289 290 290 289 289 289 288 286 286 285 282 282 282 282
272 271 271 273 275 277 276 273 273 275 276 277 278 278 278 277 279 282 284 286 287 287 290 291 290 290 291 291 291 291 291 293 292 292 290 288 288 287 287 285 285 283 283
272 271 272 271 272 273 273 273 273 273 276 278 280 281 279 278 280 283 285 286 288 288 289 291 290 290 290 290 290 290 290 291 292 294 294 293 291 290 289 288 288 287 285
272 272 272 271 270 270 271 272 272 274 277 279 280 281 280 280 281 283 285 286 288 290 289 290 290 290 290 290 290 290 291 291 292 292 293 293 292 291 289 288 287 287 286
274 273 272 271 269 268 269 271 272 275 277 278 280 280 281 281 282 285 285 286 287 288 289 289 290 291 291 291 291 290 290 290 291 291 292 293 293 292 291 289 289 287 286
274 273 274 272 271 270 270 271 273 275 277 278 279 281 281 281 283 284 285 286 287 288 289 289 289 290 291 291 291 291 291 290 291 291 292 292 292 292 292 291 290 289 287
274 273 273 273 273 272 272 272 274 275 277 280 281 281 281 282 283 283 285 286 286 288 288 289 289 290 290 291 291 291 290 290 291 291 292 292 292 292 292 292 292 291 289
273 274 275 275 275 275 275 275 275 276 278 280 281 281 282 282 283 284 284 285 286 287 288 289 289 290 290 290 291 291 291 291 291 292 292 292 292 292 293 292 292 292 291
Height
5884 5882 5881 5879 5878 5876 5875 5874 5873 5872 5871 5870 5870 5869 5869 5870 5870 5870 5870 5871 5871 5871 5872 5873 5874 5875 5876 5878 5879 5880 5881 5882 5883 5884 5885 5886 5887 5888 5888 5889 5890 5891 5891
5884 5882 5880 5879 5877 5876 5875 5874 5873 5872 5871 5870 5870 5869 5869 5869 5870 5870 5870 5871 5871 5871 5872 5873 5874 5875 5876 5877 5878 5879 5880 5881 5882 5883 5884 5885 5886 5887 5888 5888 5889 5889 5890
5884 5882 5880 5879 5877 5876 5875 5874 5873 5872 5871 5871 5870 5870 5870 5870 5870 5870 5870 5871 5871 5872 5872 5873 5874 5875 5876 5877 5878 5879 5880 5881 5882 5883 5883 5884 5885 5885 5886 5887 5887 5888 5889
5884 5882 5880 5879 5877 5876 5875 5874 5873 5872 5871 5871 5870 5870 5870 5870 5870 5870 5870 5871 5871 5872 5872 5873 5874 5875 5876 5876 5877 5878 5878 5880 5881 5882 5882 5883 5883 5884 5885 5885 5886 5886 5887
5884 5882 5881 5879 5877 5876 5875 5874 5873 5872 5872 5871 5871 5870 5870 5871 5871 5871 5871 5871 5871 5872 5872 5873 5873 5874 5875 5876 5876 5877 5877 5878 5880 5880 5881 5881 5882 5882 5883 5883 5884 5884 5885
5884 5882 5881 5879 5878 5876 5875 5874 5873 5873 5872 5872 5872 5871 5871 5871 5871 5871 5871 5871 5872 5872 5872 5873 5873 5874 5875 5876 5876 5877 5877 5878 5879 5879 5879 5879 5880 5880 5881 5881 5881 5881 5882
5884 5883 5881 5880 5878 5877 5876 5875 5874 5873 5873 5873 5872 5872 5872 5871 5871 5872 5872 5872 5872 5872 5873 5873 5874 5875 5875 5876 5876 5877 5877 5877 5878 5878 5878 5878 5878 5879 5879 5878 5878 5878 5878
5884 5883 5882 5880 5879 5878 5876 5875 5875 5874 5874 5873 5873 5873 5873 5873 5872 5872 5872 5872 5872 5873 5873 5873 5874 5874 5875 5875 5875 5876 5876 5876 5876 5877 5877 5877 5877 5877 5877 5876 5873 5874 5875
5884 5883 5882 5881 5879 5878 5877 5876 5875 5875 5874 5874 5873 5873 5873 5873 5873 5873 5872 5872 5873 5873 5873 5873 5874 5874 5874 5875 5875 5875 5875 5875 5875 5875 5875 5875 5875 5875 5874 5874 5872 5872 5871
5884 5883 5882 5881 5880 5878 5877 5876 5876 5875 5875 5874 5874 5874 5874 5873 5873 5873 5873 5873 5873 5873 5873 5873 5873 5873 5874 5874 5874 5874 5874 5874 5873 5873 5873 5873 5873 5873 5872 5872 5872 5870 5869
5883 5882 5882 5881 5880 5879 5878 5877 5876 5875 5875 5875 5874 5874 5874 5873 5873 5873 5873 5873 5873 5873 5873 5873 5873 5873 5873 5873 5873 5872 5872 5872 5872 5872 5871 5871 5871 5870 5870 5870 5869 5868 5867
5883 5882 5881 5880 5879 5878 5877 5877 5876 5875 5875 5875 5874 5874 5874 5874 5873 5873 5873 5873 5873 5873 5872 5872 5872 5872 5872 5871 5871 5871 5870 5870 5870 5869 5869 5869 5868 5868 5867 5867 5866 5865 5864
5882 5881 5880 5880 5879 5878 5877 5876 5875 5875 5874 5874 5874 5874 5874 5874 5873 5873 5873 5872 5872 5872 5872 5872 5871 5871 5870 5870 5870 5869 5868 5868 5867 5867 5867 5866 5866 5866 5865 5865 5863 5863 5862
5881 5880 5879 5879 5878 5877 5876 5875 5874 5873 5873 5873 5873 5873 5873 5873 5873 5872 5872 5872 5872 5871 5871 5870 5870 5869 5869 5868 5868 5867 5866 5865 5864 5864 5863 5863 5863 5863 5862 5862 5861 5860 5859
5880 5879 5878 5877 5876 5875 5874 5873 5872 5872 5872 5872 5872 5872 5872 5872 5871 5871 5871 5871 5871 5870 5870 5869 5868 5867 5867 5866 5865 5865 5864 5862 5861 5861 5860 5860 5860 5859 5858 5858 5857 5856 5856
5878 5877 5876 5875 5874 5873 5872 5871 5870 5870 5870 5870 5871 5871 5871 5870 5870 5870 5869 5869 5869 5868 5868 5867 5866 5865 5864 5863 5862 5862 5861 5860 5858 5857 5856 5856 5855 5855 5854 5853 5853 5852 5852
5875 5875 5874 5873 5872 5871 5870 5869 5868 5868 5868 5868 5869 5869 5869 5869 5868 5868 5867 5867 5866 5866 5865 5864 5863 5862 5861 5860 5859 5858 5857 5856 5855 5854 5852 5852 5851 5850 5849 5849 5848 5847 5847
5872 5872 5871 5870 5869 5868 5867 5867 5866 5866 5866 5866 5867 5867 5867 5867 5866 5866 5865 5865 5864 5863 5862 5861 5860 5859 5858 5857 5856 5855 5853 5852 5851 5849 5848 5847 5846 5845 5844 5843 5842 5842 5841
5869 5868 5868 5867 5866 5865 5865 5864 5864 5864 5864 5864 5864 5864 5864 5864 5864 5863 5863 5862 5861 5860 5859 5858 5856 5855 5854 5853 5851 5850 5849 5847 5846 5844 5843 5841 5840 5839 5838 5837 5836 5835 5834
5866 5865 5864 5863 5863 5862 5862 5862 5862 5862 5862 5862 5862 5861 5861 5861 5861 5860 5859 5858 5857 5856 5855 5853 5852 5851 5850 5848 5847 5845 5844 5842 5840 5839 5837 5835 5834 5832 5831 5830 5828 5827 5826
5862 5861 5860 5860 5859 5859 5858 5858 5859 5859 5859 5858 5858 5858 5858 5857 5857 5856 5855 5854 5853 5852 5850 5849 5847 5846 5844 5842 5841 5839 5838 5836 5834 5832 5830 5828 5826 5825 5823 5821 5819 5818 5816
5858 5857 5856 5856 5855 5855 5855 5855 5855 5855 5855 5855 5854 5854 5853 5853 5852 5851 5850 5849 5848 5846 5845 5843 5841 5840 5838 5836 5834 5833 5831 5829 5827 5825 5822 5820 5818 5816 5814 5812 5809 5807 5805
5854 5853 5852 5852 5851 5851 5851 5851 5851 5851 5851 5850 5850 5849 5849 5848 5847 5846 5845 5843 5842 5840 5839 5837 5835 5833 5831 5829 5827 5825 5823 5821 5819 5816 5814 5811 5808 5806 5803 5801 5798 5796 5793
5849 5849 5848 5848 5847 5847 5847 5847 5847 5846 5846 5845 5845 5844 5843 5842 5841 5840 5839 5837 5836 5834 5831 5829 5828 5826 5823 5821 5819 5816 5814 5812 5810 5806 5803 5801 5798 5795 5792 5789 5786 5782 5780
5845 5844 5844 5843 5843 5843 5842 5842 5842 5841 5841 5840 5839 5838 5837 5836 5835 5833 5832 5830 5828 5826 5824 5822 5819 5817 5814 5812 5809 5807 5804 5802 5799 5796 5793 5790 5787 5783 5780 5777 5773 5769 5765
5840 5840 5839 5838 5838 5837 5837 5837 5836 5835 5834 5833 5832 5831 5830 5829 5827 5825 5823 5822 5820 5818 5815 5813 5810 5808 5805 5802 5799 5796 5793 5790 5788 5785 5781 5778 5774 5770 5768 5764 5759 5755 5751